This is the latest recevied weather packets stored in our database for station/object DL9GJ-6. If no packets are shown the sender has not sent any weather packets the latest 10 day(s).
| Time | Temp. | Humidity | Pressure | Rain* | Wind** | Luminosity | Snow |
|---|---|---|---|---|---|---|---|
| 1778064621 | 16.11° C | 73% | 1004.8 hPa | 0 mm | - | 464 W/m² | - |
| 1778064261 | 16.11° C | 74% | 1004.8 hPa | 0 mm | - | 617 W/m² | - |
| 1778063901 | 15.56° C | 75% | 1004.9 hPa | 0 mm | - | 395 W/m² | - |
| 1778063541 | 15.56° C | 75% | 1004.8 hPa | 0 mm | - | 364 W/m² | - |
| 1778063531 | 15.56° C | 75% | 1004.8 hPa | 0 mm | - | 364 W/m² | - |
| 1778063181 | 15.56° C | 74% | 1004.9 hPa | 0 mm | - | 254 W/m² | - |
| 1778063173 | 15.56° C | 74% | 1004.9 hPa | 0 mm | - | 254 W/m² | - |
| 1778062821 | 15.56° C | 73% | 1005 hPa | 0 mm | - | 228 W/m² | - |
| 1778062461 | 16.11° C | 70% | 1005.3 hPa | 0 mm | - | 210 W/m² | - |
| 1778062101 | 16.11° C | 72% | 1005.5 hPa | 0 mm | - | 223 W/m² | - |
| 1778061740 | 16.11° C | 72% | 1005.5 hPa | 0 mm | - | 241 W/m² | - |
| 1778061381 | 16.11° C | 72% | 1005.5 hPa | 0 mm | - | 264 W/m² | - |
| 1778061020 | 16.11° C | 71% | 1005.5 hPa | 0 mm | - | 285 W/m² | - |
| 1778060661 | 15.56° C | 71% | 1005.6 hPa | 0 mm | - | 378 W/m² | - |
| 1778060300 | 15.56° C | 73% | 1005.5 hPa | 0 mm | - | 393 W/m² | - |
| 1778059941 | 15.56° C | 70% | 1005.5 hPa | 0 mm | - | 371 W/m² | - |
| 1778059581 | 15.56° C | 71% | 1005.5 hPa | 0 mm | - | 393 W/m² | - |
| 1778059566 | 15.56° C | 71% | 1005.5 hPa | 0 mm | - | 393 W/m² | - |
| 1778059220 | 15.56° C | 72% | 1005.6 hPa | 0 mm | - | 377 W/m² | - |
| 1778059208 | 15.56° C | 72% | 1005.6 hPa | 0 mm | - | 377 W/m² | - |
| 1778058860 | 15.56° C | 73% | 1005.5 hPa | 0 mm | - | 423 W/m² | - |
| 1778058501 | 15° C | 75% | 1005.5 hPa | 0 mm | - | 490 W/m² | - |
| 1778058141 | 15° C | 73% | 1005.5 hPa | 0 mm | - | 514 W/m² | - |
| 1778058129 | 15° C | 73% | 1005.5 hPa | 0 mm | - | 514 W/m² | - |
| 1778057780 | 15° C | 77% | 1005.5 hPa | 0 mm | - | 731 W/m² | - |
* Rain latest hour (hover to see other rain measurements)
** Current wind speed in m/s (hover to see current wind gust speed)